Location: Minneapolis
(45.0000°N, 93.0000°W)
Time: 11:41:40
(UTC-06:00)

N. Korean satellite - Visible Passes

Search period start: 17 December 2017 00:00
Search period end: 27 December 2017 00:00
Orbit: 461 x 513 km, 97.2° (Epoch: 16 December)

Date Brightness Start Highest point End Pass type
(mag) Time Alt. Az. Time Alt. Az. Time Alt. Az.
17 Dec 7.7 06:43:38 10° NNE 06:47:14 48° E 06:50:45 10° S visible
17 Dec 7.6 17:21:51 10° SE 17:25:01 26° ENE 17:28:11 10° NNE visible
17 Dec 9.1 18:55:26 10° SSW 18:58:29 23° W 19:01:33 10° NW visible
18 Dec 9.1 06:20:27 10° NE 06:23:34 25° E 06:26:36 10° SSE visible
18 Dec 7.9 18:31:13 10° S 18:34:47 44° W 18:38:25 10° NNW visible
19 Dec 9.9 05:57:52 10° ENE 05:59:48 14° E 06:01:43 10° ESE visible
19 Dec 6.6 18:07:27 10° SSE 18:11:11 87° WSW 18:14:59 10° NNW visible
20 Dec 6.6 07:06:20 10° N 07:10:02 85° WNW 07:13:38 10° SSW visible
20 Dec 6.9 17:44:04 10° SSE 17:47:40 47° ENE 17:51:18 10° N visible
20 Dec 10.0 19:19:36 10° WSW 19:21:27 13° W 19:23:16 10° WNW visible
21 Dec 7.7 06:42:52 10° NNE 06:46:25 47° E 06:49:53 10° S visible
21 Dec 7.7 17:21:04 10° SE 17:24:12 26° ENE 17:27:23 10° NNE visible
21 Dec 9.1 18:54:36 10° SSW 18:57:40 24° W 19:00:45 10° NW visible
22 Dec 9.1 06:19:41 10° NE 06:22:44 24° E 06:25:43 10° SSE visible
22 Dec 7.8 18:30:23 10° S 18:33:59 44° W 18:37:37 10° NNW visible
23 Dec 9.9 05:57:07 10° ENE 05:58:57 13° E 06:00:45 10° ESE visible
23 Dec 6.6 18:06:37 10° SSE 18:10:22 88° WSW 18:14:09 10° NNW visible
24 Dec 6.5 07:05:32 10° N 07:09:11 86° WNW 07:12:44 10° SSW visible
24 Dec 6.9 17:43:14 10° SSE 17:46:50 47° ENE 17:50:27 10° N visible
24 Dec 10.0 19:18:43 10° WSW 19:20:36 13° W 19:22:29 10° WNW visible
25 Dec 7.8 06:42:03 10° NNE 06:45:33 46° E 06:48:59 10° S visible
25 Dec 7.7 17:20:14 10° SE 17:23:22 26° ENE 17:26:31 10° NNE visible
25 Dec 9.1 18:53:44 10° SSW 18:56:49 24° W 18:59:55 10° NW visible
26 Dec 9.1 06:18:52 10° NE 06:21:51 24° E 06:24:46 10° SSE visible
26 Dec 7.8 18:29:32 10° S 18:33:07 45° W 18:36:45 10° NNW visible
